Regional Weather Roundup
Issued by NWS

Home | Current Version | Previous Version | Graphics & Text | Print | Product List | Glossary On
Versions: 1 2 3 4 5 6 7 8 9 10 11 12 13 14 15 16 17 18 19 20 21 22 23 24 25 26 27 28 29 30 31 32 33 34 35 36 37 38 39 40 41 42 43 44 45 46 47 48 49 50
725
ASUS43 KLSX 191957
RWRMO

WEATHER SUMMARY FOR MISSOURI
NATIONAL WEATHER SERVICE SPRINGFIELD MO
300 PM CDT SAT AUG 19 2017

NOTE: "FAIR" INDICATES FEW OR NO CLOUDS BELOW 12,000 FEET WITH NO
       SIGNIFICANT WEATHER AND/OR OBSTRUCTIONS TO VISIBILITY.
       CURRENT SKY AND/OR WEATHER CONDITIONS ARE NOT AVAILABLE FOR
       CHILLICOTHE AND FARMINGTON.

MOZ001>031-035>038-043-044-053-054-192100-
...NORTHERN AND WESTERN MISSOURI...

CITY           SKY/WX    TMP DP  RH WIND       PRES   REMARKS
KANSAS CTY INT SUNNY     88  69  53 CALM      29.95F HX  92
ST JOSEPH      SUNNY     89  66  46 S5        29.93F HX  91
CHILLICOTHE      N/A     92  57  30 W6        29.94F HX  90

$$
MOZ066>068-077>081-088>096-101>105-192100-
...SOUTHWEST MISSOURI...

CITY           SKY/WX    TMP DP  RH WIND       PRES   REMARKS
SPRINGFIELD    MOSUNNY   90  75  61 SW9       29.98F HX 100
JOPLIN         MOSUNNY   93  75  55 VRB5      29.96F HX 104
BRANSON        MOSUNNY   90  73  58 W5        30.00F HX  98

$$
MOZ032>034-039>042-045>050-055>058-069>072-192100-
...CENTRAL MISSOURI...

CITY           SKY/WX    TMP DP  RH WIND       PRES   REMARKS
COLUMBIA       NOT AVBL
JEFFERSON CITY SUNNY     88  75  65 S3        29.93F HX  97
ROLLA          SUNNY     89  71  55 SW8       29.98F HX  95
SEDALIA        SUNNY     91  69  48 VRB3      29.97F HX  96
WARRENSBURG    SUNNY     88  68  51 CALM      29.95F HX  91

$$
MOZ051-052-059>065-192100-
...EAST CENTRAL MISSOURI...

CITY           SKY/WX    TMP DP  RH WIND       PRES   REMARKS
ST LOUIS INTL  MOSUNNY   89  66  46 VRB3      29.94F HX  91

$$
MOZ072>076-082>087-097>100-106>115-192100-
...SOUTH CENTRAL AND SOUTHEAST MISSOURI...

CITY           SKY/WX    TMP DP  RH WIND       PRES   REMARKS
CAPE GIRARDEAU MOSUNNY   91  69  48 CALM      29.93F HX  96
POPLAR BLUFF   MOSUNNY   91  74  57 SE5       29.93F HX 100

$$



USA.gov is the U.S. government's official web portal to all federal, state and local government web resources and services.